User: anonymous   Login
Location: Unspecified
(0.0000°N, 0.0000°E)
Time: 20:48:03
(UTC+00:00)
Language:

Meteor 1-26 - Orbit

View from above orbital plane
View from above orbital plane
View from above satellite
View from above satellite

Ground track
Ground track

The orbit data is extracted from the following two-line orbital elements,

1  9481U 76102A   18015.82558464 -.00000103 +00000-0 -65591-4 0  9991
2  9481 081.2179 165.2398 0023360 319.5358 040.4074 14.09768515120440
Epoch (UTC): 15 January 2018 19:48:50
Eccentricity: 0.0023360
inclination: 81.2179°
perigee height: 843 km
apogee height: 877 km
right ascension of ascending node: 165.2398°
argument of perigee: 319.5358°
revolutions per day: 14.09768515
mean anomaly at epoch: 40.4074°
orbit number at epoch: 12044

The dashed part of the orbit path shows where the satellite is in the earth's shadow,  

DLR